Home   Weather   Odesa   Past weeks

Flag for Ukraine Past Weather in Odesa, Ukraine — Yesterday and Last 2 Weeks

Now
36 °F

Partly sunny.


Feels Like: 28 °F
Forecast: 27 / 36 °F
Wind: 10 mph from Southwest

Location: Odesa Airport

Current Time: Jan 23, 2017 at 3:04:32 pm

Latest Report: Jan 23, 2017 at 2:30 pm


Visibility: N/A

Pressure: 30.42 "Hg

Humidity: 65%

Dew Point: 25 °F

Location of OdesaLocation

Past Weather in Odesa — Graph

°F

Odesa Temperature Yesterday

Maximum temperature yesterday: 37 °F (at 12:00 pm)
Minimum temperature yesterday: 23 °F (at 11:30 pm)
Average temperature yesterday: 32 °F

High & Low Weather Summary for the Past Weeks

 TemperatureHumidityPressure
High41 °F (Jan 14, 8:00 am)100% (Jan 10, 5:00 am)30.66 "Hg (Jan 10, 5:00 am)
Low3 °F (Jan 8, 9:00 pm)59% (Jan 20, 2:30 pm)29.59 "Hg (Jan 14, 11:30 am)
Average26 °F87%30.20 "Hg
* Reported Jan 8 2:00 pm — Jan 23 2:00 pm, Odesa, Weather by CustomWeather, © 2017

Note: Actual official high and low records may vary slightly from our data, if they occured in-between our weather recording intervals... More about our weather records

Advertising

Odesa Weather History for the Previous 24 Hours

Scroll right to see more
 ConditionsComfort  
Time TempWeatherWind HumidityBarometerVisibility
2:00 pm
Mon, Jan 23
37 °FScattered clouds.10 mph65%30.45 "HgN/A
1:30 pm37 °FScattered clouds.8 mph60%30.45 "HgN/A
1:00 pm37 °FScattered clouds.10 mph60%30.45 "HgN/A
12:30 pm37 °FPassing clouds.8 mph60%30.48 "HgN/A
12:00 pm37 °FPassing clouds.6 mph60%30.48 "HgN/A
11:30 am37 °FSunny.8 mph60%30.48 "Hg10 mi
11:00 am36 °FSunny.6 mph70%30.51 "Hg10 mi
10:30 am34 °FSunny.6 mph75%30.51 "Hg10 mi
10:00 am34 °FSunny.3 mph75%30.51 "Hg10 mi
9:30 am30 °FSunny.1 mph93%30.51 "Hg10 mi
9:00 am28 °FIce fog.No wind100%30.51 "Hg3 mi
8:30 am23 °FIce fog.No wind100%30.51 "Hg3 mi
8:00 am19 °FIce fog.No wind100%30.51 "Hg3 mi
7:35 am19 °FIce fog.No wind100%30.51 "Hg1 mi
7:14 am19 °FIce fog.No wind100%30.54 "Hg2 mi
7:00 am19 °FIce fog.No wind100%30.51 "Hg0 mi
6:30 am19 °FIce fog.No wind100%30.54 "Hg0 mi
6:12 am18 °FIce fog.No wind100%30.54 "Hg0 mi
5:40 am18 °FIce fog.No wind100%30.54 "Hg2 mi
5:30 am19 °FIce fog.No wind93%30.54 "Hg2 mi
5:00 am19 °FIce fog.No wind100%30.54 "Hg2 mi
4:44 am19 °FIce fog.No wind100%30.54 "Hg1 mi
4:30 am19 °FIce fog.No wind100%30.54 "Hg1 mi
4:00 am19 °FIce fog.No wind100%30.54 "Hg1 mi
3:42 am21 °FIce fog.No wind100%30.51 "Hg1 mi
3:30 am21 °FIce fog.No wind100%30.54 "Hg0 mi
3:23 am21 °FIce fog.No wind100%30.54 "Hg0 mi
3:00 am21 °FIce fog.No wind100%30.54 "Hg1 mi
2:30 am21 °FIce fog.No wind100%30.54 "Hg1 mi
2:00 am19 °FIce fog.No wind100%30.54 "Hg0 mi
1:30 am21 °FIce fog.No wind100%30.54 "Hg1 mi
1:00 am21 °FIce fog.No wind100%30.54 "Hg2 mi
12:30 am23 °FIce fog.No wind100%30.54 "Hg0 mi
12:02 am23 °FIce fog.No wind100%30.54 "Hg0 mi
11:41 pm
Sun, Jan 22
23 °FIce fog.No wind100%30.57 "Hg0 mi
11:30 pm23 °FIce fog.No wind100%30.57 "Hg0 mi
11:00 pm25 °FIce fog.No wind93%30.57 "Hg0 mi
10:30 pm25 °FClear.No wind100%30.54 "Hg4 mi
10:15 pm25 °FIce fog.No wind93%30.54 "Hg2 mi
10:00 pm25 °FClear.No wind100%30.54 "Hg4 mi
9:30 pm25 °FClear.No wind100%30.54 "Hg4 mi
9:00 pm25 °FClear.No wind93%30.54 "Hg10 mi
8:30 pm25 °FClear.No wind93%30.54 "Hg10 mi
8:00 pm28 °FClear.1 mph86%30.54 "Hg10 mi
7:30 pm30 °FClear.3 mph80%30.54 "Hg10 mi
7:00 pm30 °FClear.No wind80%30.54 "Hg10 mi
6:30 pm30 °FClear.No wind80%30.54 "Hg10 mi
6:00 pm30 °FClear.No wind75%30.54 "Hg10 mi
5:30 pm32 °FClear.3 mph69%30.54 "Hg10 mi
5:00 pm32 °FClear.3 mph75%30.54 "Hg10 mi
4:30 pm34 °FSunny.6 mph70%30.54 "Hg10 mi
4:00 pm37 °FPartly sunny.6 mph60%30.54 "HgN/A
3:30 pm36 °FPartly sunny.6 mph60%30.54 "HgN/A
3:00 pm37 °FPartly sunny.1 mph60%30.54 "HgN/A
Weather by CustomWeather, © 2017

See weather overviewHow to use our weather pages